METEOR 2-5 DEB, 35506

Orbit data source: Space-Track

METEOR 2-5 DEB, 35506 is space debris in LEO originally from a launch on Wed, 31 Oct 1979 UTC launched from the Plesetsk Missile And Space Complex (PKMTR). Debris objects in space refer to the collection of defunct objects orbiting the Earth. Examples of debris include non-operational satellites, rocket bodies, and fragments generated from explosions, collisions, or faulty payload assembly.

Loading next visibility...
Identifier
35506, 1979-095Z
Orbit
LEO
Country
Flag of CISCIS
Related business
Manufacturer
Unknown
Mission
Spacecraft
Bus & Motor
Unknown
Mass
Unknown
Launch date (UTC)
1979-10-31 (47 years ago)
Launch vehicle
Unknown
Launch site
Plesetsk Missile And Space Complex (PKMTR)
Object type
Payload
Rocket body
Debris
Shape & HBR
Unknown shape, 0.1 m
Radar Cross Section
Small (<0.1 m²)

Expand to show TLE details & history
Last TLE update: 2 days ago

TLE from 2 days ago
0 METEOR 2-5 DEB
1 35506U 79095Z   26122.54472270  .00022962  00000-0  36671-2 0  9999
2 35506  81.1827  63.7947 0008291  99.8170 260.3971 14.71739023282904
Epoch: 2026-05-02T13:04Z
TLE epoch observation values (Epoch: 2026-05-02T13:04:24.041Z)
Latitude
-0.00002°
Longitude
7.23343°
Altitude
659.481 km
Speed
7.527 km/s
True Right ascension
04h 15m 10s
True Declination
0° 00' 00"
Sunlit
Object was in daylight at epoch
Visualization orbit readout
Latitude
Unknown
Longitude
Unknown
Altitude
Unknown
Speed
Unknown
Apparent Right ascension
Unknown
Apparent Declination
Unknown
Sunlit
N/A
Visualization observer readout
Local Sidereal Time
12:24:46
Azimuth
Unknown
Elevation
Unknown
Doppler factor
Unknown
Orbital elements
Apogee altitude
658.446 km
Perigee altitude
646.788 km
Semi-major axis
7,030.754 km
Eccentricity
0.00083
Inclination
81.1827°
RAAN
63.7947°
Arg. of periapsis
99.817°
True anomaly
260.30344°
Mean anomaly
260.3971°
Eccentric anomaly
260.35027°
Mean motion
3.68163 °/min
Orbital period
97.78 mins
BSTAR
0.0036671
Loading maneuver chart data...
Computing Atmospheric mass density...

Documentation

Showing up to 5 results
|